| time (UTC) | temp F | wind direction | speed MPH | gust MPH | rain 1hr in | rain 24hr in | rain mn in | humidity % | barometer mb |
| 20260503044325 | 59 | 78 | 0.0 | 0.0 | 0.00 | 0.00 | 0.00 | 72 | 1014.0 |
| 20260503043809 | 60 | 78 | 0.0 | 0.0 | 0.00 | 0.00 | 0.00 | 72 | 1013.9 |
| 20260503043316 | 60 | 78 | 0.0 | 0.0 | 0.00 | 0.00 | 0.00 | 71 | 1013.9 |
| 20260503042805 | 60 | 78 | 0.0 | 0.0 | 0.00 | 0.00 | 0.00 | 73 | 1013.8 |
| 20260503042256 | 60 | 78 | 0.0 | 0.0 | 0.00 | 0.00 | 0.00 | 69 | 1013.7 |
| 20260503041758 | 60 | 78 | 0.0 | 0.0 | 0.00 | 0.00 | 0.00 | 68 | 1013.7 |
| 20260503041311 | 61 | 78 | 0.0 | 0.0 | 0.00 | 0.00 | 0.00 | 69 | 1013.5 |
| 20260503040759 | 61 | 78 | 0.0 | 0.0 | 0.00 | 0.00 | 0.00 | 68 | 1013.5 |
| 20260503040247 | 61 | 78 | 0.0 | 0.0 | 0.00 | 0.00 | 0.00 | 68 | 1013.4 |
| 20260503035759 | 62 | 78 | 0.0 | 0.0 | 0.00 | 0.00 | 0.00 | 68 | 1013.3 |
| 20260503035306 | 62 | 78 | 0.0 | 0.0 | 0.00 | 0.00 | 0.00 | 67 | 1013.3 |
| 20260503034754 | 62 | 78 | 0.0 | 1.0 | 0.00 | 0.00 | 0.00 | 66 | 1013.2 |
| 20260503034302 | 63 | 78 | 0.0 | 0.0 | 0.00 | 0.00 | 0.00 | 63 | 1013.2 |
| 20260503033748 | 63 | 78 | 0.0 | 0.0 | 0.00 | 0.00 | 0.00 | 62 | 1013.1 |
| 20260503033257 | 64 | 78 | 0.0 | 0.0 | 0.00 | 0.00 | 0.00 | 63 | 1013.0 |
| 20260503032806 | 64 | 78 | 0.0 | 0.0 | 0.00 | 0.00 | 0.00 | 61 | 1013.0 |
| 20260503032300 | 64 | 78 | 0.0 | 0.0 | 0.00 | 0.00 | 0.00 | 61 | 1012.9 |
| 20260503031747 | 65 | 78 | 0.0 | 0.0 | 0.00 | 0.00 | 0.00 | 59 | 1012.9 |
| 20260503031257 | 65 | 78 | 0.0 | 1.0 | 0.00 | 0.00 | 0.00 | 60 | 1012.8 |
| 20260503030806 | 65 | 78 | 0.0 | 1.0 | 0.00 | 0.00 | 0.00 | 58 | 1012.8 |
| 20260503030253 | 65 | 175 | 0.0 | 0.0 | 0.00 | 0.00 | 0.00 | 56 | 1012.8 |
| 20260503025801 | 66 | 175 | 0.0 | 0.0 | 0.00 | 0.00 | 0.00 | 56 | 1012.7 |
| 20260503025250 | 66 | 175 | 0.0 | 2.0 | 0.00 | 0.00 | 0.00 | 60 | 1012.7 |
| 20260503024759 | 66 | 157 | 1.0 | 2.0 | 0.00 | 0.00 | 0.00 | 59 | 1012.7 |
| 20260503024305 | 67 | 355 | 0.0 | 4.0 | 0.00 | 0.00 | 0.00 | 57 | 1012.7 |
| 20260503023756 | 67 | 360 | 0.0 | 4.0 | 0.00 | 0.00 | 0.00 | 58 | 1012.7 |
| 20260503023249 | 67 | 225 | 0.0 | 1.0 | 0.00 | 0.00 | 0.00 | 57 | 1012.6 |
| 20260503022758 | 67 | 329 | 0.0 | 1.0 | 0.00 | 0.00 | 0.00 | 56 | 1012.6 |
| 20260503022246 | 67 | 360 | 0.0 | 0.0 | 0.00 | 0.00 | 0.00 | 57 | 1012.6 |
| 20260503021756 | 68 | 360 | 0.0 | 1.0 | 0.00 | 0.00 | 0.00 | 59 | 1012.6 |
| 20260503021304 | 68 | 360 | 0.0 | 4.0 | 0.00 | 0.00 | 0.00 | 59 | 1012.6 |
| 20260503020752 | 68 | 338 | 1.0 | 4.0 | 0.00 | 0.00 | 0.00 | 57 | 1012.6 |
| 20260503020300 | 68 | 165 | 0.0 | 1.0 | 0.00 | 0.00 | 0.00 | 57 | 1012.6 |
| 20260503015828 | 69 | 165 | 0.0 | 1.0 | 0.00 | 0.00 | 0.00 | 58 | 1012.7 |
| 20260503015255 | 69 | 165 | 0.0 | 1.0 | 0.00 | 0.00 | 0.00 | 59 | 1012.7 |
| 20260503014804 | 69 | 165 | 0.0 | 2.0 | 0.00 | 0.00 | 0.00 | 58 | 1012.7 |
| 20260503014315 | 69 | 195 | 1.0 | 1.0 | 0.00 | 0.00 | 0.00 | 59 | 1012.7 |
| 20260503013822 | 69 | 315 | 0.0 | 1.0 | 0.00 | 0.00 | 0.00 | 59 | 1012.7 |
| 20260503013254 | 70 | 262 | 0.0 | 1.0 | 0.00 | 0.00 | 0.00 | 59 | 1012.8 |
| 20260503012803 | 70 | 251 | 0.0 | 1.0 | 0.00 | 0.00 | 0.00 | 57 | 1012.8 |
| 20260503012252 | 70 | 277 | 0.0 | 2.0 | 0.00 | 0.00 | 0.00 | 56 | 1012.9 |
| 20260503011801 | 70 | 320 | 0.0 | 4.0 | 0.00 | 0.00 | 0.00 | 57 | 1012.9 |
| 20260503011308 | 70 | 312 | 1.0 | 4.0 | 0.00 | 0.00 | 0.00 | 57 | 1012.9 |
| 20260503010758 | 70 | 246 | 1.0 | 3.0 | 0.00 | 0.00 | 0.00 | 56 | 1012.9 |
| 20260503010247 | 71 | 260 | 0.0 | 2.0 | 0.00 | 0.00 | 0.00 | 56 | 1012.9 |
| 20260503005756 | 71 | 260 | 0.0 | 4.0 | 0.00 | 0.00 | 0.00 | 55 | 1012.9 |
| 20260503005304 | 71 | 295 | 1.0 | 6.0 | 0.00 | 0.00 | 0.00 | 54 | 1013.0 |
| 20260503004757 | 71 | 246 | 3.0 | 6.0 | 0.00 | 0.00 | 0.00 | 54 | 1012.9 |
| 20260503004305 | 71 | 324 | 1.0 | 4.0 | 0.00 | 0.00 | 0.00 | 54 | 1012.9 |
| 20260503003814 | 72 | 178 | 1.0 | 3.0 | 0.00 | 0.00 | 0.00 | 57 | 1013.0 |
| 20260503003302 | 72 | 49 | 1.0 | 2.0 | 0.00 | 0.00 | 0.00 | 56 | 1012.9 |
| 20260503002750 | 72 | 20 | 1.0 | 2.0 | 0.00 | 0.00 | 0.00 | 56 | 1013.0 |
| 20260503002300 | 72 | 55 | 0.0 | 4.0 | 0.00 | 0.00 | 0.00 | 57 | 1013.0 |
| 20260503001808 | 72 | 269 | 1.0 | 4.0 | 0.00 | 0.00 | 0.00 | 55 | 1012.9 |
| 20260503001255 | 72 | 281 | 1.0 | 4.0 | 0.00 | 0.00 | 0.00 | 57 | 1013.0 |
| 20260503000803 | 72 | 304 | 0.0 | 6.0 | 0.00 | 0.00 | 0.00 | 56 | 1013.0 |
| 20260503000252 | 73 | 325 | 2.0 | 7.0 | 0.00 | 0.00 | 0.00 | 54 | 1013.1 |
| 20260502235801 | 73 | 329 | 2.0 | 7.0 | 0.00 | 0.00 | 0.00 | 53 | 1013.0 |
| 20260502235248 | 73 | 276 | 0.0 | 4.0 | 0.00 | 0.00 | 0.00 | 56 | 1013.1 |
| 20260502234801 | 73 | 198 | 1.0 | 4.0 | 0.00 | 0.00 | 0.00 | 56 | 1013.2 |
| 20260502234309 | 73 | 249 | 1.0 | 4.0 | 0.00 | 0.00 | 0.00 | 57 | 1013.2 |
| 20260502233759 | 73 | 300 | 0.0 | 4.0 | 0.00 | 0.00 | 0.00 | 56 | 1013.3 |
| 20260502233249 | 73 | 275 | 1.0 | 3.0 | 0.00 | 0.00 | 0.00 | 55 | 1013.4 |
| 20260502232756 | 73 | 272 | 2.0 | 5.0 | 0.00 | 0.00 | 0.00 | 55 | 1013.5 |
| 20260502232304 | 74 | 261 | 2.0 | 5.0 | 0.00 | 0.00 | 0.00 | 55 | 1013.5 |
| 20260502231753 | 74 | 277 | 1.0 | 5.0 | 0.00 | 0.00 | 0.00 | 54 | 1013.6 |
| 20260502231302 | 74 | 313 | 2.0 | 7.0 | 0.00 | 0.00 | 0.00 | 53 | 1013.7 |
| 20260502230750 | 74 | 293 | 3.0 | 7.0 | 0.00 | 0.00 | 0.00 | 52 | 1013.8 |
| 20260502230319 | 75 | 320 | 1.0 | 7.0 | 0.00 | 0.00 | 0.00 | 53 | 1013.9 |
| 20260502225806 | 74 | 19 | 1.0 | 5.0 | 0.00 | 0.00 | 0.00 | 53 | 1014.0 |
| 20260502225259 | 74 | 266 | 2.0 | 5.0 | 0.00 | 0.00 | 0.00 | 53 | 1014.1 |
| 20260502224747 | 75 | 316 | 1.0 | 8.0 | 0.00 | 0.00 | 0.00 | 53 | 1014.1 |
| 20260502224258 | 75 | 306 | 2.0 | 8.0 | 0.00 | 0.00 | 0.00 | 53 | 1014.1 |
| 20260502223747 | 75 | 186 | 1.0 | 6.0 | 0.00 | 0.00 | 0.00 | 54 | 1014.1 |
| 20260502223257 | 75 | 221 | 2.0 | 6.0 | 0.00 | 0.00 | 0.00 | 55 | 1014.2 |
| 20260502222747 | 75 | 209 | 2.0 | 6.0 | 0.00 | 0.00 | 0.00 | 55 | 1014.2 |
| 20260502222316 | 75 | 267 | 2.0 | 6.0 | 0.00 | 0.00 | 0.00 | 53 | 1014.3 |
| 20260502221803 | 75 | 179 | 1.0 | 6.0 | 0.00 | 0.00 | 0.00 | 53 | 1014.4 |
| 20260502221254 | 75 | 325 | 1.0 | 3.0 | 0.00 | 0.00 | 0.00 | 52 | 1014.5 |
| 20260502220747 | 74 | 268 | 1.0 | 5.0 | 0.00 | 0.00 | 0.00 | 56 | 1014.5 |
| 20260502220317 | 74 | 47 | 1.0 | 5.0 | 0.00 | 0.00 | 0.00 | 56 | 1014.6 |
| 20260502215804 | 73 | 318 | 3.0 | 5.0 | 0.00 | 0.00 | 0.00 | 52 | 1014.7 |
| 20260502215253 | 73 | 271 | 1.0 | 5.0 | 0.00 | 0.00 | 0.00 | 56 | 1014.7 |
| 20260502214801 | 73 | 258 | 2.0 | 8.0 | 0.00 | 0.00 | 0.00 | 57 | 1014.7 |
| 20260502214249 | 72 | 192 | 4.0 | 8.0 | 0.00 | 0.00 | 0.00 | 55 | 1014.8 |
| 20260502213819 | 72 | 327 | 2.0 | 5.0 | 0.00 | 0.00 | 0.00 | 55 | 1014.8 |
| 20260502213247 | 72 | 278 | 2.0 | 5.0 | 0.00 | 0.00 | 0.00 | 60 | 1014.9 |
| 20260502212756 | 72 | 155 | 2.0 | 5.0 | 0.00 | 0.00 | 0.00 | 58 | 1014.9 |
| 20260502212305 | 72 | 275 | 1.0 | 7.0 | 0.00 | 0.00 | 0.00 | 61 | 1015.0 |
| 20260502211815 | 72 | 227 | 0.0 | 7.0 | 0.00 | 0.00 | 0.00 | 60 | 1015.0 |
| 20260502211302 | 72 | 249 | 2.0 | 5.0 | 0.00 | 0.00 | 0.00 | 59 | 1015.0 |
| 20260502210754 | 72 | 329 | 2.0 | 5.0 | 0.00 | 0.00 | 0.00 | 61 | 1015.1 |
| 20260502210301 | 71 | 317 | 0.0 | 7.0 | 0.00 | 0.00 | 0.00 | 63 | 1015.2 |
| 20260502205749 | 71 | 281 | 3.0 | 7.0 | 0.00 | 0.00 | 0.00 | 61 | 1015.1 |
| 20260502205258 | 71 | 294 | 2.0 | 8.0 | 0.00 | 0.00 | 0.00 | 59 | 1015.2 |
| 20260502204747 | 71 | 328 | 2.0 | 4.0 | 0.00 | 0.00 | 0.00 | 59 | 1015.1 |
| 20260502204256 | 71 | 316 | 1.0 | 4.0 | 0.00 | 0.00 | 0.00 | 62 | 1015.2 |